Home   Weather   Canton   Past weeks

Flag for USA Past Weather in Canton, Ohio, USA — Yesterday and Last 2 Weeks

Now
37 °F

Low clouds.


Feels Like: 30 °F
Forecast: 37 / 46 °F
Wind: 9 mph from Southwest

Location: Akron-Canton Regional Airport

Current Time: Jan 19, 2017 at 4:06:43 am

Latest Report: Jan 19, 2017 at 2:51 am


Visibility: 7 mi

Pressure: 30.11 "Hg

Humidity: 86%

Dew Point: 33 °F

Location of CantonLocation

Past Weather in Canton — Graph

°F

Canton Temperature Yesterday

Maximum temperature yesterday: 46 °F (at 12:51 am)
Minimum temperature yesterday: 37 °F (at 11:51 pm)
Average temperature yesterday: 40 °F

High & Low Weather Summary for the Past Weeks

 TemperatureHumidityPressure
High67 °F (Jan 17, 4:51 pm)93% (Jan 12, 10:51 am)30.73 "Hg (Jan 12, 10:51 am)
Low0 °F (Jan 7, 4:51 am)45% (Jan 17, 4:51 pm)29.62 "Hg (Jan 4, 2:26 am)
Average30 °F73%30.19 "Hg
* Reported Jan 4 2:26 am — Jan 19 2:51 am, Canton, Weather by CustomWeather, © 2017

Note: Actual official high and low records may vary slightly from our data, if they occured in-between our weather recording intervals... More about our weather records

Advertising

Canton Weather History for the Previous 24 Hours

Scroll right to see more
 ConditionsComfort  
Time TempWeatherWind HumidityBarometerVisibility
2:51 am
Thu, Jan 19
37 °FLow clouds.9 mph86%30.11 "Hg7 mi
1:51 am37 °FLow clouds.10 mph86%30.11 "Hg7 mi
1:18 am37 °FLow clouds.9 mph86%30.08 "Hg8 mi
12:51 am37 °FFog.13 mph86%30.10 "Hg6 mi
12:28 am37 °FFog.13 mph89%30.07 "Hg4 mi
11:51 pm
Wed, Jan 18
37 °FFog.14 mph86%30.11 "Hg4 mi
10:51 pm38 °FLow clouds.10 mph83%30.13 "Hg7 mi
9:51 pm38 °FFog.10 mph90%30.11 "Hg3 mi
8:51 pm38 °FFog.10 mph90%30.10 "Hg2 mi
8:35 pm38 °FFog.8 mph90%30.08 "Hg2 mi
7:51 pm38 °FOvercast.8 mph86%30.11 "Hg9 mi
6:51 pm39 °FMostly cloudy.10 mph82%30.11 "Hg10 mi
5:51 pm39 °FOvercast.7 mph82%30.12 "Hg7 mi
5:25 pm39 °FOvercast.9 mph82%30.09 "Hg9 mi
4:51 pm39 °FLow clouds.7 mph82%30.09 "Hg6 mi
3:51 pm39 °FLow clouds.9 mph82%30.08 "Hg10 mi
2:51 pm39 °FLow clouds.12 mph82%30.09 "Hg7 mi
1:51 pm38 °FFog.10 mph86%30.10 "Hg5 mi
12:51 pm38 °FFog.13 mph86%30.10 "Hg5 mi
11:51 am38 °FFog.12 mph86%30.11 "Hg5 mi
11:04 am38 °FFog.12 mph86%30.09 "Hg3 mi
10:51 am38 °FFog.10 mph86%30.11 "Hg2 mi
9:51 am39 °FLight rain. Fog.13 mph86%30.09 "Hg2 mi
8:51 am41 °FLight rain. Mostly cloudy.9 mph80%30.06 "Hg2 mi
7:51 am40 °FLight rain. Low clouds.13 mph80%30.04 "Hg2 mi
7:34 am39 °FLight rain. Low clouds.13 mph82%30.03 "Hg2 mi
6:51 am40 °FMostly cloudy.13 mph80%30.02 "Hg9 mi
5:51 am42 °FLight rain. Mostly cloudy.14 mph79%30.00 "Hg3 mi
4:51 am44 °FMostly cloudy.15 mph73%29.98 "Hg10 mi
4:34 am44 °FLight rain. Overcast.14 mph76%29.97 "Hg3 mi
4:12 am44 °FLight rain. Overcast.18 mph79%29.97 "Hg4 mi
Weather by CustomWeather, © 2017

See weather overviewHow to use our weather pages